| time (UTC) | temp F | wind direction | speed knots | gust knots | rain 1hr in | rain 24hr in | rain mn in | humidity % | barometer mb |
| 20260506165503 | 56 | 45 | 1.7 | 2.6 | 0.00 | 0.00 | 0.00 | 56 | 1013.5 |
| 20260506165003 | 56 | 27 | 2.6 | 7.0 | 0.00 | 0.00 | 0.00 | 56 | 1013.5 |
| 20260506164504 | 56 | 25 | 5.2 | 7.0 | 0.00 | 0.00 | 0.00 | 55 | 1013.5 |
| 20260506164004 | 56 | 28 | 1.7 | 2.6 | 0.00 | 0.00 | 0.00 | 54 | 1013.2 |
| 20260506163505 | 56 | 30 | 1.7 | 4.3 | 0.00 | 0.00 | 0.00 | 54 | 1013.2 |
| 20260506163005 | 56 | 27 | 2.6 | 7.0 | 0.00 | 0.00 | 0.00 | 54 | 1013.2 |
| 20260506162504 | 56 | 49 | 6.1 | 7.8 | 0.00 | 0.00 | 0.00 | 53 | 1013.2 |
| 20260506161504 | 56 | 34 | 4.3 | 12.2 | 0.00 | 0.00 | 0.00 | 53 | 1013.2 |
| 20260506160504 | 56 | 18 | 10.4 | 13.9 | 0.00 | 0.00 | 0.00 | 52 | 1014.2 |
| 20260506160004 | 56 | 61 | 2.6 | 15.6 | 0.00 | 0.00 | 0.00 | 52 | 1013.9 |
| 20260506155504 | 57 | 34 | 10.4 | 15.6 | 0.00 | 0.00 | 0.00 | 50 | 1013.9 |
| 20260506155004 | 57 | 21 | 7.0 | 12.2 | 0.00 | 0.00 | 0.00 | 50 | 1013.9 |
| 20260506154505 | 57 | 349 | 8.7 | 13.9 | 0.00 | 0.00 | 0.00 | 49 | 1013.9 |
| 20260506154004 | 56 | 9 | 7.0 | 13.9 | 0.00 | 0.00 | 0.00 | 49 | 1014.2 |
| 20260506153503 | 57 | 341 | 5.2 | 12.2 | 0.00 | 0.00 | 0.00 | 50 | 1014.2 |
| 20260506153004 | 57 | 58 | 4.3 | 6.1 | 0.00 | 0.00 | 0.00 | 51 | 1013.5 |
| 20260506152504 | 57 | 50 | 1.7 | 13.9 | 0.00 | 0.00 | 0.00 | 49 | 1013.5 |
| 20260506152005 | 57 | 54 | 10.4 | 13.9 | 0.00 | 0.00 | 0.00 | 50 | 1013.9 |
| 20260506151504 | 57 | 34 | 7.0 | 11.3 | 0.00 | 0.00 | 0.00 | 50 | 1013.5 |
| 20260506151005 | 57 | 24 | 7.8 | 10.4 | 0.00 | 0.00 | 0.00 | 48 | 1013.9 |
| 20260506150504 | 58 | 37 | 4.3 | 6.1 | 0.00 | 0.00 | 0.00 | 48 | 1013.5 |
| 20260506145504 | 58 | 38 | 2.6 | 12.2 | 0.00 | 0.00 | 0.00 | 49 | 1013.9 |
| 20260506145004 | 57 | 49 | 7.0 | 12.2 | 0.00 | 0.00 | 0.00 | 50 | 1013.5 |
| 20260506144504 | 57 | 21 | 8.7 | 12.2 | 0.00 | 0.00 | 0.00 | 49 | 1014.2 |
| 20260506143505 | 57 | 332 | 5.2 | 13.9 | 0.00 | 0.00 | 0.00 | 48 | 1013.5 |
| 20260506143004 | 58 | 71 | 7.8 | 15.6 | 0.00 | 0.00 | 0.00 | 47 | 1014.2 |
| 20260506142504 | 57 | 26 | 7.8 | 15.6 | 0.00 | 0.00 | 0.00 | 48 | 1014.2 |
| 20260506142004 | 57 | 357 | 8.7 | 18.2 | 0.00 | 0.00 | 0.00 | 50 | 1014.2 |
| 20260506141504 | 57 | 2 | 2.6 | 18.2 | 0.00 | 0.00 | 0.00 | 51 | 1014.2 |
| 20260506141004 | 58 | 52 | 7.8 | 12.2 | 0.00 | 0.00 | 0.00 | 51 | 1014.2 |
| 20260506140505 | 57 | 11 | 6.1 | 10.4 | 0.00 | 0.00 | 0.00 | 52 | 1014.2 |
| 20260506140005 | 57 | 25 | 7.8 | 10.4 | 0.00 | 0.00 | 0.00 | 51 | 1014.2 |
| 20260506135505 | 58 | 32 | 6.1 | 8.7 | 0.00 | 0.00 | 0.00 | 52 | 1013.9 |
| 20260506134504 | 57 | 306 | 4.3 | 15.6 | 0.00 | 0.00 | 0.00 | 51 | 1014.2 |
| 20260506134003 | 57 | 311 | 8.7 | 15.6 | 0.00 | 0.00 | 0.00 | 51 | 1014.2 |
| 20260506133505 | 58 | 297 | 7.8 | 13.9 | 0.00 | 0.00 | 0.00 | 51 | 1014.2 |
| 20260506132504 | 56 | 25 | 6.1 | 13.9 | 0.00 | 0.00 | 0.00 | 52 | 1014.6 |
| 20260506132005 | 57 | 48 | 5.2 | 13.9 | 0.00 | 0.00 | 0.00 | 51 | 1013.9 |
| 20260506131504 | 57 | 35 | 11.3 | 13.9 | 0.00 | 0.00 | 0.00 | 50 | 1014.6 |
| 20260506130504 | 57 | 35 | 10.4 | 13.9 | 0.00 | 0.00 | 0.00 | 50 | 1014.6 |
| 20260506130004 | 57 | 50 | 2.6 | 6.1 | 0.00 | 0.00 | 0.00 | 55 | 1013.9 |
| 20260506095004 | 52 | 26 | 7.0 | 11.3 | 0.00 | 0.00 | 0.00 | 65 | 1014.6 |
| 20260506094504 | 53 | 47 | 6.1 | 10.4 | 0.00 | 0.00 | 0.00 | 63 | 1014.9 |
| 20260506094004 | 53 | 43 | 4.3 | 13.9 | 0.00 | 0.00 | 0.00 | 61 | 1014.9 |
| 20260506093504 | 52 | 43 | 5.2 | 15.6 | 0.00 | 0.00 | 0.00 | 61 | 1014.9 |
| 20260506092504 | 51 | 30 | 11.3 | 18.2 | 0.00 | 0.00 | 0.00 | 64 | 1014.9 |
| 20260506091504 | 52 | 103 | 7.0 | 15.6 | 0.00 | 0.00 | 0.00 | 67 | 1014.9 |
| 20260506091004 | 51 | 83 | 5.2 | 18.2 | 0.00 | 0.00 | 0.00 | 67 | 1014.9 |
| 20260506090504 | 51 | 16 | 6.1 | 18.2 | 0.00 | 0.00 | 0.00 | 67 | 1014.9 |
| 20260506090004 | 51 | 39 | 4.3 | 7.0 | 0.00 | 0.00 | 0.00 | 70 | 1015.2 |
| 20260506085503 | 50 | 38 | 4.3 | 12.2 | 0.00 | 0.00 | 0.00 | 71 | 1015.2 |
| 20260506085004 | 50 | 25 | 7.0 | 12.2 | 0.00 | 0.00 | 0.00 | 72 | 1015.2 |
| 20260506084504 | 50 | 14 | 4.3 | 6.1 | 0.00 | 0.00 | 0.00 | 71 | 1014.9 |
| 20260506084005 | 50 | 34 | 1.7 | 7.0 | 0.00 | 0.00 | 0.00 | 73 | 1014.6 |
| 20260506083503 | 50 | 119 | 6.1 | 7.0 | 0.00 | 0.00 | 0.00 | 72 | 1014.6 |
| 20260506083004 | 50 | 31 | 4.3 | 12.2 | 0.00 | 0.00 | 0.00 | 73 | 1014.9 |
| 20260506082003 | 49 | 4 | 10.4 | 12.2 | 0.00 | 0.00 | 0.00 | 74 | 1014.6 |
| 20260506081504 | 50 | 6 | 1.7 | 12.2 | 0.00 | 0.00 | 0.00 | 74 | 1014.9 |
| 20260506081005 | 49 | 65 | 6.1 | 12.2 | 0.00 | 0.00 | 0.00 | 75 | 1014.9 |
| 20260506080504 | 49 | 52 | 4.3 | 10.4 | 0.00 | 0.00 | 0.00 | 77 | 1014.2 |
| 20260506073504 | 47 | 35 | 4.3 | 6.1 | 0.00 | 0.00 | 0.00 | 79 | 1013.9 |
| 20260506073005 | 47 | 51 | 5.2 | 6.1 | 0.00 | 0.00 | 0.00 | 79 | 1013.9 |
| 20260506072504 | 47 | 28 | 1.7 | 7.0 | 0.00 | 0.00 | 0.00 | 79 | 1013.9 |
| 20260506072004 | 46 | 17 | 4.3 | 11.3 | 0.00 | 0.00 | 0.00 | 78 | 1013.9 |
| 20260506071505 | 46 | 67 | 8.7 | 18.2 | 0.00 | 0.00 | 0.00 | 79 | 1013.9 |
| 20260506071003 | 46 | 40 | 7.8 | 18.2 | 0.00 | 0.00 | 0.00 | 79 | 1014.9 |
| 20260506070504 | 46 | 22 | 5.2 | 8.7 | 0.00 | 0.00 | 0.00 | 80 | 1013.9 |
| 20260506062503 | 46 | 91 | 2.6 | 13.9 | 0.00 | 0.00 | 0.00 | 82 | 1014.9 |
| 20260506062004 | 46 | 21 | 7.0 | 15.6 | 0.00 | 0.00 | 0.00 | 82 | 1014.6 |
| 20260506061504 | 45 | 41 | 8.7 | 15.6 | 0.00 | 0.00 | 0.00 | 82 | 1014.6 |
| 20260506061003 | 45 | 25 | 4.3 | 10.4 | 0.00 | 0.00 | 0.00 | 82 | 1014.6 |
| 20260506051004 | 46 | 15 | 6.1 | 12.2 | 0.00 | 0.00 | 0.00 | 83 | 1014.2 |
| 20260506050504 | 46 | 48 | 6.1 | 10.4 | 0.00 | 0.00 | 0.00 | 83 | 1014.2 |
| 20260506045004 | 46 | 12 | 7.8 | 13.9 | 0.00 | 0.00 | 0.00 | 83 | 1014.2 |
| 20260506044503 | 46 | 4 | 5.2 | 13.9 | 0.00 | 0.00 | 0.00 | 84 | 1013.9 |
| 20260506044005 | 46 | 24 | 3.5 | 7.8 | 0.00 | 0.00 | 0.00 | 84 | 1013.4 |
| 20260506043503 | 46 | 40 | 5.2 | 8.7 | 0.00 | 0.00 | 0.00 | 84 | 1013.0 |
| 20260506042504 | 46 | 13 | 2.6 | 13.9 | 0.00 | 0.00 | 0.00 | 85 | 1013.3 |
| 20260506042004 | 47 | 33 | 2.6 | 4.3 | 0.00 | 0.00 | 0.00 | 85 | 1012.9 |
| 20260506041504 | 47 | 37 | 4.3 | 6.1 | 0.00 | 0.00 | 0.00 | 85 | 1013.0 |
| 20260506041005 | 47 | 49 | 4.3 | 10.4 | 0.00 | 0.00 | 0.00 | 85 | 1013.5 |
| 20260506040004 | 47 | 41 | 4.3 | 6.1 | 0.00 | 0.00 | 0.00 | 85 | 1012.9 |
| 20260506035504 | 47 | 35 | 4.3 | 6.1 | 0.00 | 0.00 | 0.00 | 85 | 1012.9 |
| 20260506035005 | 47 | 19 | 4.3 | 10.4 | 0.00 | 0.00 | 0.00 | 85 | 1013.1 |
| 20260506034504 | 47 | 18 | 7.0 | 13.9 | 0.00 | 0.00 | 0.00 | 85 | 1013.9 |
| 20260506034005 | 47 | 42 | 6.1 | 13.9 | 0.00 | 0.00 | 0.00 | 85 | 1013.9 |
| 20260506033504 | 47 | 34 | 7.0 | 13.9 | 0.00 | 0.00 | 0.00 | 85 | 1014.2 |
| 20260506033004 | 47 | 46 | 6.1 | 12.2 | 0.00 | 0.00 | 0.00 | 85 | 1014.2 |
| 20260506032504 | 47 | 58 | 4.3 | 6.1 | 0.00 | 0.00 | 0.00 | 85 | 1014.2 |
| 20260506031505 | 47 | 32 | 6.1 | 12.2 | 0.00 | 0.00 | 0.00 | 84 | 1013.2 |
| 20260506031004 | 47 | 76 | 7.8 | 12.2 | 0.00 | 0.00 | 0.00 | 84 | 1014.2 |
| 20260506030503 | 47 | 37 | 6.1 | 10.4 | 0.00 | 0.00 | 0.00 | 84 | 1013.9 |
| 20260506030004 | 47 | 30 | 5.2 | 8.7 | 0.00 | 0.00 | 0.00 | 84 | 1013.2 |
| 20260506025503 | 47 | 19 | 5.2 | 7.0 | 0.00 | 0.00 | 0.00 | 85 | 1012.9 |
| 20260506025004 | 47 | 37 | 4.3 | 7.0 | 0.00 | 0.00 | 0.00 | 85 | 1012.9 |
| 20260506024004 | 48 | 68 | 5.2 | 10.4 | 0.00 | 0.00 | 0.00 | 85 | 1012.9 |
| 20260506023503 | 48 | 28 | 5.2 | 10.4 | 0.00 | 0.00 | 0.00 | 85 | 1013.9 |
| 20260506023005 | 48 | 59 | 5.2 | 7.0 | 0.00 | 0.00 | 0.00 | 86 | 1012.9 |
| 20260506022503 | 48 | 15 | 5.2 | 13.9 | 0.00 | 0.00 | 0.00 | 86 | 1013.2 |
| 20260506022004 | 48 | 52 | 4.3 | 13.9 | 0.00 | 0.00 | 0.00 | 86 | 1014.2 |
| 20260506021504 | 48 | 38 | 4.3 | 12.2 | 0.00 | 0.00 | 0.00 | 86 | 1014.2 |
| 20260506021005 | 48 | 38 | 3.5 | 10.4 | 0.00 | 0.00 | 0.00 | 86 | 1013.9 |
| 20260506020504 | 48 | 15 | 5.2 | 10.4 | 0.00 | 0.00 | 0.00 | 86 | 1014.2 |
| 20260506020004 | 48 | 26 | 7.0 | 12.2 | 0.00 | 0.00 | 0.00 | 86 | 1014.2 |
| 20260506015503 | 48 | 21 | 5.2 | 12.2 | 0.00 | 0.00 | 0.00 | 86 | 1013.9 |
| 20260506015003 | 48 | 19 | 4.3 | 10.4 | 0.00 | 0.00 | 0.00 | 86 | 1014.2 |
| 20260506014503 | 48 | 46 | 2.6 | 4.3 | 0.00 | 0.00 | 0.00 | 85 | 1013.2 |
| 20260506014004 | 49 | 88 | 1.7 | 2.6 | 0.00 | 0.00 | 0.00 | 85 | 1013.2 |
| 20260506013505 | 49 | 33 | 1.7 | 6.1 | 0.00 | 0.00 | 0.00 | 84 | 1013.2 |
| 20260506013003 | 49 | 75 | 5.2 | 6.1 | 0.00 | 0.00 | 0.00 | 84 | 1013.2 |
| 20260506012505 | 49 | 54 | 2.6 | 4.3 | 0.00 | 0.00 | 0.00 | 83 | 1013.2 |
| 20260506012003 | 49 | 48 | 0.9 | 10.4 | 0.00 | 0.00 | 0.00 | 83 | 1013.2 |
| 20260506011004 | 49 | 65 | 1.7 | 7.8 | 0.00 | 0.00 | 0.00 | 82 | 1012.9 |
| 20260506010504 | 49 | 43 | 5.2 | 7.8 | 0.00 | 0.00 | 0.00 | 81 | 1014.2 |
| 20260506010004 | 49 | 86 | 5.2 | 10.4 | 0.00 | 0.00 | 0.00 | 81 | 1014.2 |
| 20260506005504 | 49 | 23 | 7.0 | 10.4 | 0.00 | 0.00 | 0.00 | 81 | 1014.2 |
| 20260506005004 | 49 | 82 | 0.9 | 13.9 | 0.00 | 0.00 | 0.00 | 81 | 1013.2 |
| 20260506004504 | 49 | 30 | 7.8 | 13.9 | 0.00 | 0.00 | 0.00 | 80 | 1014.6 |
| 20260506004004 | 49 | 48 | 1.7 | 12.2 | 0.00 | 0.00 | 0.00 | 80 | 1014.2 |
| 20260506003504 | 49 | 57 | 2.6 | 13.9 | 0.00 | 0.00 | 0.00 | 79 | 1014.2 |
| 20260506003004 | 50 | 67 | 7.0 | 15.6 | 0.00 | 0.00 | 0.00 | 79 | 1014.2 |
| 20260506002505 | 50 | 44 | 10.4 | 15.6 | 0.00 | 0.00 | 0.00 | 78 | 1014.2 |
| 20260506002005 | 50 | 84 | 2.6 | 4.3 | 0.00 | 0.00 | 0.00 | 79 | 1013.2 |
| 20260506001504 | 50 | 54 | 2.6 | 10.4 | 0.00 | 0.00 | 0.00 | 79 | 1013.2 |
| 20260506001004 | 50 | 56 | 5.2 | 10.4 | 0.00 | 0.00 | 0.00 | 79 | 1014.2 |
| 20260506000505 | 50 | 34 | 2.6 | 6.1 | 0.00 | 0.00 | 0.00 | 79 | 1012.9 |
| 20260506000003 | 50 | 31 | 1.7 | 7.8 | 0.00 | 0.00 | 0.00 | 80 | 1012.9 |
| 20260505235504 | 50 | 56 | 6.1 | 7.8 | 0.00 | 0.00 | 0.00 | 80 | 1014.2 |
| 20260505235003 | 50 | 38 | 2.6 | 12.2 | 0.00 | 0.00 | 0.00 | 80 | 1014.2 |
| 20260505234505 | 51 | 22 | 1.7 | 12.2 | 0.00 | 0.00 | 0.00 | 79 | 1014.2 |
| 20260505234005 | 51 | 59 | 1.7 | 7.8 | 0.00 | 0.00 | 0.00 | 79 | 1013.9 |
| 20260505233505 | 51 | 25 | 5.2 | 7.8 | 0.00 | 0.00 | 0.00 | 80 | 1013.9 |
| 20260505233004 | 51 | 77 | 4.3 | 10.4 | 0.00 | 0.00 | 0.00 | 79 | 1013.9 |
| 20260505232505 | 51 | 24 | 7.8 | 10.4 | 0.00 | 0.00 | 0.00 | 79 | 1013.9 |
| 20260505232004 | 51 | 19 | 4.3 | 7.8 | 0.00 | 0.00 | 0.00 | 80 | 1013.9 |
| 20260505231504 | 51 | 27 | 4.3 | 12.2 | 0.00 | 0.00 | 0.00 | 80 | 1012.9 |
| 20260505231004 | 51 | 18 | 7.8 | 12.2 | 0.00 | 0.00 | 0.00 | 79 | 1013.9 |
| 20260505230505 | 51 | 33 | 4.3 | 8.7 | 0.00 | 0.00 | 0.00 | 80 | 1013.9 |
| 20260505230004 | 52 | 27 | 6.1 | 10.4 | 0.00 | 0.00 | 0.00 | 80 | 1012.9 |
| 20260505225505 | 52 | 25 | 2.6 | 10.4 | 0.00 | 0.00 | 0.00 | 80 | 1013.9 |
| 20260505225005 | 52 | 25 | 2.6 | 7.0 | 0.00 | 0.00 | 0.00 | 79 | 1013.2 |
| 20260505224503 | 52 | 359 | 6.1 | 7.0 | 0.00 | 0.00 | 0.00 | 79 | 1012.9 |
| 20260505223503 | 52 | 66 | 7.0 | 8.7 | 0.00 | 0.00 | 0.00 | 78 | 1012.9 |
| 20260505223004 | 53 | 36 | 2.6 | 7.8 | 0.00 | 0.00 | 0.00 | 77 | 1013.9 |
| 20260505222503 | 53 | 22 | 2.6 | 4.3 | 0.00 | 0.00 | 0.00 | 76 | 1013.9 |
| 20260505222004 | 53 | 40 | 1.7 | 7.8 | 0.00 | 0.00 | 0.00 | 76 | 1013.9 |
| 20260505221504 | 53 | 57 | 7.0 | 7.8 | 0.00 | 0.00 | 0.00 | 76 | 1013.9 |
| 20260505221004 | 53 | 8 | 4.3 | 6.1 | 0.00 | 0.00 | 0.00 | 75 | 1013.9 |
| 20260505220504 | 53 | 8 | 0.0 | 6.1 | 0.00 | 0.00 | 0.00 | 75 | 1013.9 |
| 20260505215004 | 53 | 358 | 1.7 | 4.3 | 0.00 | 0.00 | 0.00 | 74 | 1012.9 |
| 20260505214503 | 53 | 14 | 1.7 | 4.3 | 0.00 | 0.00 | 0.00 | 74 | 1013.2 |
| 20260505214005 | 53 | 22 | 1.7 | 2.6 | 0.00 | 0.00 | 0.00 | 74 | 1013.2 |
| 20260505213505 | 53 | 28 | 1.7 | 4.3 | 0.00 | 0.00 | 0.00 | 74 | 1012.9 |
| 20260505213005 | 53 | 37 | 1.7 | 4.3 | 0.00 | 0.00 | 0.00 | 74 | 1012.9 |
| 20260505212504 | 53 | 328 | 0.0 | 7.8 | 0.00 | 0.00 | 0.00 | 74 | 1013.2 |
| 20260505212003 | 53 | 38 | 5.2 | 7.8 | 0.00 | 0.00 | 0.00 | 74 | 1013.5 |
| 20260505211504 | 53 | 355 | 1.7 | 6.1 | 0.00 | 0.00 | 0.00 | 74 | 1012.9 |
| 20260505211003 | 53 | 28 | 1.7 | 6.1 | 0.00 | 0.00 | 0.00 | 74 | 1013.5 |
| 20260505210504 | 53 | 22 | 5.2 | 6.1 | 0.00 | 0.00 | 0.00 | 74 | 1013.5 |
| 20260505210004 | 53 | 20 | 2.6 | 10.4 | 0.00 | 0.00 | 0.00 | 73 | 1013.9 |
| 20260505205505 | 54 | 6 | 5.2 | 10.4 | 0.00 | 0.00 | 0.00 | 73 | 1013.9 |
| 20260505205004 | 54 | 24 | 0.9 | 7.8 | 0.00 | 0.00 | 0.00 | 73 | 1012.9 |
| 20260505204504 | 54 | 38 | 4.3 | 7.8 | 0.00 | 0.00 | 0.00 | 73 | 1013.5 |
| 20260505204003 | 54 | 31 | 5.2 | 7.8 | 0.00 | 0.00 | 0.00 | 73 | 1013.5 |
| 20260505203504 | 54 | 33 | 2.6 | 10.4 | 0.00 | 0.00 | 0.00 | 73 | 1013.5 |
| 20260505203004 | 54 | 51 | 4.3 | 10.4 | 0.00 | 0.00 | 0.00 | 72 | 1013.5 |
| 20260505202004 | 54 | 23 | 2.6 | 7.8 | 0.00 | 0.00 | 0.00 | 72 | 1013.2 |
| 20260505201504 | 54 | 5 | 2.6 | 7.8 | 0.00 | 0.00 | 0.00 | 72 | 1012.9 |
| 20260505200504 | 55 | 338 | 1.7 | 6.1 | 0.00 | 0.00 | 0.00 | 71 | 1012.9 |
| 20260505200003 | 55 | 348 | 0.9 | 2.6 | 0.00 | 0.00 | 0.00 | 71 | 1012.9 |
| 20260505195505 | 55 | 1 | 0.9 | 1.7 | 0.00 | 0.00 | 0.00 | 71 | 1012.7 |
| 20260505194504 | 55 | 7 | 2.6 | 7.8 | 0.00 | 0.00 | 0.00 | 70 | 1013.2 |
| 20260505194004 | 55 | 33 | 4.3 | 10.4 | 0.00 | 0.00 | 0.00 | 70 | 1013.2 |
| 20260505193503 | 55 | 47 | 4.3 | 10.4 | 0.00 | 0.00 | 0.00 | 69 | 1013.2 |
| 20260505193005 | 55 | 47 | 2.6 | 7.8 | 0.00 | 0.00 | 0.00 | 69 | 1013.2 |
| 20260505192504 | 56 | 35 | 1.7 | 7.8 | 0.00 | 0.00 | 0.00 | 68 | 1013.0 |
| 20260505192005 | 56 | 352 | 1.7 | 7.8 | 0.00 | 0.00 | 0.00 | 69 | 1012.7 |
| 20260505191505 | 56 | 343 | 1.7 | 7.8 | 0.00 | 0.00 | 0.00 | 69 | 1013.0 |
| 20260505191004 | 56 | 325 | 3.5 | 7.8 | 0.00 | 0.00 | 0.00 | 69 | 1012.3 |
| 20260505190004 | 56 | 343 | 3.5 | 7.8 | 0.00 | 0.00 | 0.00 | 68 | 1012.8 |
| 20260505185504 | 56 | 22 | 2.6 | 4.3 | 0.00 | 0.00 | 0.00 | 68 | 1012.2 |
| 20260505185004 | 56 | 343 | 2.6 | 4.3 | 0.00 | 0.00 | 0.00 | 68 | 1012.2 |
| 20260505184503 | 56 | 312 | 2.6 | 4.3 | 0.00 | 0.00 | 0.00 | 68 | 1012.5 |
| 20260505184004 | 56 | 56 | 2.6 | 4.3 | 0.00 | 0.00 | 0.00 | 68 | 1012.2 |
| 20260505183504 | 56 | 70 | 2.6 | 4.3 | 0.00 | 0.00 | 0.00 | 68 | 1012.2 |
| 20260505183006 | 57 | 20 | 3.5 | 15.6 | 0.00 | 0.00 | 0.00 | 68 | 1012.2 |
| 20260505182503 | 57 | 346 | 5.2 | 15.6 | 0.00 | 0.00 | 0.00 | 67 | 1012.9 |
| 20260505181504 | 57 | 314 | 4.3 | 13.9 | 0.00 | 0.00 | 0.00 | 67 | 1012.9 |
| 20260505181004 | 57 | 18 | 5.2 | 13.9 | 0.00 | 0.00 | 0.00 | 66 | 1012.9 |
| 20260505180505 | 57 | 63 | 6.1 | 12.2 | 0.00 | 0.00 | 0.00 | 67 | 1012.9 |
| 20260505180004 | 57 | 353 | 6.1 | 12.2 | 0.00 | 0.00 | 0.00 | 66 | 1012.9 |
| 20260505175504 | 57 | 340 | 7.8 | 12.2 | 0.00 | 0.00 | 0.00 | 66 | 1012.9 |
| 20260505175003 | 57 | 43 | 5.2 | 8.7 | 0.00 | 0.00 | 0.00 | 66 | 1012.9 |
| 20260505174505 | 57 | 20 | 4.3 | 13.9 | 0.00 | 0.00 | 0.00 | 66 | 1012.2 |
| 20260505174004 | 57 | 17 | 5.2 | 13.9 | 0.00 | 0.00 | 0.00 | 66 | 1012.9 |
| 20260505173504 | 57 | 27 | 2.6 | 7.0 | 0.00 | 0.00 | 0.00 | 67 | 1012.2 |
| 20260505173004 | 57 | 24 | 6.1 | 12.2 | 0.00 | 0.00 | 0.00 | 67 | 1012.5 |
| 20260505172505 | 57 | 22 | 1.7 | 15.6 | 0.00 | 0.00 | 0.00 | 66 | 1012.9 |
| 20260505172005 | 57 | 16 | 4.3 | 15.6 | 0.00 | 0.00 | 0.00 | 66 | 1012.9 |
| 20260505171505 | 58 | 4 | 1.7 | 4.3 | 0.00 | 0.00 | 0.00 | 67 | 1012.2 |
| 20260505171004 | 58 | 33 | 0.0 | 4.3 | 0.00 | 0.00 | 0.00 | 67 | 1012.5 |
| 20260505170505 | 58 | 28 | 4.3 | 4.3 | 0.00 | 0.00 | 0.00 | 66 | 1012.2 |